Voltar ao catálogo

FENGYUN 1C DEB

LostSSO
NORAD 38810·DEBRIS·🇨🇳 China

Lançado May 10, 1999 de Taiyuan Satellite Launch Center

Loading…

Próximas Passagens (próximas 24 horas)

TLE

ObsoletoSource: Space-Track

Época: Sep 5, 2022, 07:19 UTC

1 38810U 99025EVA 22248.30547576  .00001636  00000-0  10012-2 0  9992
2 38810  99.4220  55.3091 0139625 106.9154  13.2319 14.02619472605470

Acompanhe FENGYUN 1C DEB em tempo real com AllMySat

Download on the App Store